Hourly Weather Roundup
Issued by NWS Central Illinois

Home | Current Version | Previous Version | Text Only | Print | Product List | Glossary On
Versions: 1 2 3 4 5 6 7 8 9 10 11 12 13 14 15 16 17 18 19 20 21 22 23 24 25 26 27 28 29 30 31 32 33 34 35 36 37 38 39 40 41 42 43 44 45 46 47 48 49 50
000
NZUS43 KILX 230810
HWRILX

Area Weather Roundup
National Weather Service Lincoln IL
300 AM CDT SUN APR 23 2017

NOTE:  "FAIR" indicates few or no clouds below 12,000 feet, with
       no sigificant weather and/or obstructions to visibility.


CITY           SKY/WX    TMP DP  RH WIND       PRES   REMARKS
Bloomington    CLEAR     39  28  64 NE6       30.12F WCI  35
Champaign      CLEAR     43  25  49 NE13      30.09F
Danville       CLEAR     39  28  65 NE6       30.07F WCI  35
Decatur        CLEAR     37  30  75 N8        30.09F WCI  31
Effingham      CLEAR     44  34  68 N6        30.07S
Flora          CLEAR     45  37  73 N8        30.03F
Galesburg      CLEAR     37  32  84 CALM      30.13S
Jacksonville   CLEAR     40  29  64 NE6       30.11F
Lacon          CLEAR     36  29  76 CALM      30.12S
Lawrenceville  PTCLDY    45  34  65 NE12      30.03F
Litchfield     CLEAR     46  29  52 NE15      30.08S
$$


CITY           SKY/WX    TMP DP  RH WIND       PRES   REMARKS
Lincoln        CLEAR     41  31  67 NE3       30.11F
Macomb         CLEAR     37  31  78 N6        30.15F WCI  33
Mattoon        CLEAR     39  31  72 NE8       30.07S WCI  33
Mt Carmel AP   CLEAR     47  32  56 NE12G17   30.01F
Olney-Noble AP PTCLDY    45  38  75 N7        30.03F
Paris AP       CLEAR     41  32  69 N8        30.08F
Peoria         CLEAR     40  30  67 CALM      30.12F
Pontiac        CLEAR     40  30  67 CALM      30.13S
Rantoul        CLEAR     42  29  58 NE7       30.10F
Robinson       CLEAR     42  36  78 N10       30.05F
Springfield    CLEAR     42  32  67 CALM      30.11F
Taylorville    CLEAR     39  30  69 N5        30.09F
$$

...REGIONAL REPORTS...


CITY           SKY/WX    TMP DP  RH WIND       PRES   REMARKS
Chicago O`Hare CLEAR     40  29  64 CALM      30.12F
Kankakee       CLEAR     36  28  73 CALM      30.12F
Moline         PTCLDY    39  34  82 CALM      30.14S
Mount Sterling CLEAR     41  30  64 CALM      30.11F
Mount Vernon   CLOUDY    46  35  65 NE7       30.01F
Pittsfield     CLEAR     46  29  52 CALM      30.12F
Quincy         CLEAR     43  30  60 N6        30.12F
Rockford       CLEAR     39  32  76 CALM      30.15S
$$


CITY           SKY/WX    TMP DP  RH WIND       PRES   REMARKS
Burlington     CLEAR     39  37  92 CALM      30.14S
Cedar Rapids   CLEAR     43  30  60 W3        30.14S
Des Moines     CLEAR     47  32  56 W3        30.16F
Kirksville     CLEAR     36  33  89 CALM      30.15F
Ottumwa        CLEAR     36  31  82 W6        30.15F WCI  31
St Louis       CLEAR     49  33  54 N9        30.08F
$$


CITY           SKY/WX    TMP DP  RH WIND       PRES   REMARKS
Terre Haute    CLEAR     40  33  76 N5        30.06F
Evansville     PTCLDY    49  38  65 NE12      29.97F
Indianapolis   PTCLDY    45  31  58 NE12      30.07S
Lafayette      CLEAR     42  31  64 NE3       30.09F
Madison        CLEAR     38  34  85 CALM      30.12S
Milwaukee      CLEAR     43  28  55 CALM      30.11F
$$





USA.gov is the U.S. government's official web portal to all federal, state and local government web resources and services.